Location: Asheville, NC
(35.6000°N, 82.5500°W)
Time: 06:22:34
(UTC-05:00)

STARS - Pass Details

Date: 08 January 2018
Orbit: 625 x 641 km, 98.3° (Epoch: 19 January)

Event Time Altitude Azimuth Distance (km) Brightness Sun altitude
Rises 18:49:02 0° 8° (N) 2,922 ? -15.0°
Reaches altitude 10° 18:51:14 10° 5° (N) 2,013 ? -15.4°
Maximum altitude 18:55:33 60° 286° (WNW) 727 ? -16.3°
Drops below altitude 10° 18:59:51 10° 206° (SSW) 2,009 ? -17.1°
Sets 19:02:04 0° 203° (SSW) 2,916 ? -17.5°
